Theta_e
339 339 336 334 334 335 335 332 332 330 331 330 330 328 329 336 337 337 338 345 344 343 339 338 337 335 334 333 333 333 332 331 331 331 332 333 333 333 333 333 334 334 335
343 341 338 338 337 335 334 332 330 331 332 330 330 329 330 335 337 337 337 340 345 343 342 339 338 337 336 335 336 337 338 338 336 337 337 337 337 336 336 334 334 335 334
344 343 340 337 339 336 333 335 332 332 332 329 330 331 330 331 333 337 335 336 339 344 343 343 341 339 339 338 337 338 341 340 341 340 340 340 340 340 337 336 336 335 336
345 345 339 339 338 336 337 335 332 332 330 330 331 332 330 331 330 331 334 335 335 335 342 344 344 342 340 337 337 337 341 342 341 341 340 340 340 340 340 338 337 337 337
339 341 340 340 338 337 336 332 334 332 330 329 329 330 330 332 332 329 330 332 333 333 334 342 343 343 341 338 337 336 335 339 340 340 339 340 340 340 340 340 339 338 337
340 342 340 340 337 336 335 337 334 335 332 329 326 327 330 330 333 331 328 328 330 331 333 335 336 336 342 340 338 336 335 335 335 336 338 339 338 336 338 339 340 340 339
341 346 342 339 339 336 336 335 334 334 331 333 328 328 327 330 330 331 332 331 330 329 329 333 333 332 335 341 338 338 336 333 333 332 335 335 334 334 335 336 338 339 340
342 344 343 342 339 336 335 334 335 332 332 331 324 325 320 324 327 328 329 330 329 331 330 330 331 332 332 330 332 339 335 332 329 327 327 329 329 331 332 333 334 335 337
342 343 344 342 342 337 334 337 335 333 328 327 331 324 319 316 322 331 327 329 330 330 330 331 331 332 332 331 334 335 333 327 325 322 322 324 325 325 325 326 328 330 332
341 342 343 343 340 339 335 336 335 334 334 328 331 330 332 330 318 317 326 328 330 331 332 329 328 332 332 331 334 334 330 326 322 319 319 321 322 322 322 322 323 324 325
344 340 342 341 338 340 338 338 336 335 334 331 328 327 325 327 329 321 315 319 327 329 330 331 328 326 329 329 331 332 328 323 320 318 318 320 320 320 320 321 321 322 323
342 343 342 344 343 342 340 336 337 336 336 334 333 332 327 323 322 322 318 319 319 322 324 324 327 326 326 328 332 328 325 322 321 321 320 319 319 319 318 319 319 320 320
338 341 343 343 340 342 340 339 338 337 336 332 334 332 331 329 328 326 321 319 317 320 322 322 323 324 327 326 323 324 324 323 321 321 321 321 319 319 316 317 318 318 319
335 339 339 342 342 342 340 338 337 336 335 333 333 332 332 330 331 328 324 321 316 317 318 322 326 326 327 324 324 326 320 324 323 322 321 321 320 319 317 317 317 316 316
343 337 340 342 341 341 340 339 335 334 335 334 333 333 332 333 333 332 330 327 319 312 313 317 317 326 326 323 323 320 321 326 325 322 321 320 319 319 319 318 317 316 316
346 339 340 342 343 341 341 337 335 334 333 333 334 332 331 332 331 331 330 325 322 318 312 317 317 322 324 321 325 322 322 326 324 322 321 320 318 319 319 318 318 317 317
345 343 343 343 341 340 340 338 336 333 333 331 333 332 331 332 330 329 327 322 318 317 313 315 320 322 323 321 321 322 323 320 320 323 323 322 319 318 317 317 317 317 317
344 343 342 341 339 338 339 335 334 333 328 329 328 330 330 331 329 328 324 319 317 317 314 311 315 316 317 319 321 322 322 320 318 321 321 321 319 317 316 315 315 315 314
343 342 342 338 337 337 337 337 334 332 328 330 330 329 329 326 325 324 321 318 317 319 319 316 315 318 317 318 318 321 320 318 320 323 320 319 318 318 316 315 314 313 311
341 342 342 341 339 338 335 335 333 334 331 332 332 330 328 325 324 321 321 320 320 319 317 315 314 314 315 317 318 314 313 317 316 318 320 316 317 317 317 316 315 315 312
341 341 339 339 337 335 330 333 333 332 330 329 329 328 327 327 327 323 318 318 319 316 315 313 311 310 309 309 310 313 311 313 314 314 312 311 311 309 309 311 313 315 313
341 339 339 337 335 332 317 318 322 327 327 325 324 326 327 325 323 318 317 317 316 314 312 312 311 310 311 311 310 309 310 309 307 313 309 308 310 308 308 309 312 311 310
338 338 336 335 333 334 314 312 312 322 323 323 324 324 323 322 321 322 318 314 315 314 313 312 310 311 310 311 311 310 308 305 305 308 306 303 307 306 308 309 309 308 307
335 335 334 333 333 331 313 309 309 321 323 324 324 325 324 323 318 318 319 316 317 317 317 315 311 311 311 312 307 306 304 303 304 306 307 300 305 304 306 309 309 307 305
336 333 333 331 332 332 311 307 310 325 324 325 324 324 321 318 307 308 318 314 314 313 314 311 309 307 303 304 306 304 302 301 300 302 305 302 301 300 305 306 307 307 305
332 330 329 331 325 330 308 306 308 325 322 321 321 322 307 311 304 306 312 313 311 312 313 311 311 309 305 308 306 306 304 300 300 299 302 299 300 302 299 304 305 305 304
Wind_Speed
1 2 3 4 1 3 2 3 1 3 5 5 5 2 4 5 10 6 6 15 16 16 16 14 12 10 8 6 5 4 3 2 2 3 3 3 4 4 4 5 6 6 6
1 3 3 1 2 1 3 1 4 3 4 3 2 4 5 2 6 9 7 8 13 15 15 15 14 11 9 8 7 6 5 6 5 5 6 6 6 7 8 8 8 7 7
2 3 3 1 1 3 4 2 1 4 4 3 0 2 3 4 3 7 8 7 8 13 15 15 14 13 12 9 9 8 7 6 7 7 8 8 8 8 9 9 9 9 9
3 3 5 3 4 2 4 1 3 4 2 1 3 3 4 4 5 2 3 7 7 7 10 13 12 12 12 11 11 10 8 7 8 8 9 10 10 10 9 10 11 11 11
8 5 5 4 3 3 2 2 2 1 3 3 4 4 1 2 3 5 6 4 6 7 7 14 15 14 14 14 14 13 11 8 6 6 6 6 7 9 10 11 12 12 12
6 6 4 3 2 4 2 3 3 4 4 4 6 1 4 4 3 3 2 1 4 6 6 10 8 8 16 16 14 14 12 9 5 5 5 5 5 8 9 10 12 13 14
6 6 3 5 4 3 2 1 2 4 4 3 3 4 2 3 3 2 3 4 6 5 5 4 7 5 6 16 15 13 10 7 5 4 3 4 5 7 9 10 9 13 15
5 4 6 4 6 1 4 3 2 3 4 1 1 3 1 2 2 4 4 4 4 2 5 4 4 2 3 5 6 11 11 7 4 1 3 5 7 8 9 10 11 11 10
4 6 5 4 1 2 2 4 3 4 3 4 6 1 2 2 3 0 3 4 4 2 2 3 5 6 6 5 9 12 10 8 5 2 4 8 8 10 11 11 12 12 12
6 6 6 5 4 3 4 5 4 3 1 5 2 2 0 3 1 3 1 5 6 5 6 5 6 6 6 5 8 12 17 12 7 4 4 8 10 11 12 12 12 13 14
6 7 6 6 6 4 4 4 1 3 2 3 4 1 1 2 1 2 4 6 2 6 7 10 6 5 6 6 5 9 17 13 9 4 5 8 10 12 12 12 12 12 14
6 6 5 5 6 5 4 4 5 5 5 4 3 5 2 2 4 4 4 6 5 5 2 2 4 4 4 5 8 18 14 10 9 10 8 10 11 13 13 13 13 13 14
3 8 7 5 6 6 6 5 5 5 5 4 5 4 4 3 3 2 2 3 3 5 4 4 5 5 5 5 7 15 16 12 12 10 11 12 13 13 13 13 14 15 16
2 4 6 6 6 6 6 6 5 5 6 6 6 5 4 6 6 4 4 3 6 5 4 6 3 5 5 5 9 14 9 15 13 13 13 14 15 16 14 13 14 15 15
4 6 12 7 7 6 7 6 6 7 6 5 6 7 5 5 5 6 6 7 4 6 5 4 2 2 4 4 9 7 6 6 7 11 13 16 18 17 14 15 16 16 16
5 4 5 5 6 6 6 7 6 9 8 5 5 6 6 5 6 7 7 6 4 3 6 2 3 3 3 3 6 6 6 9 10 14 16 18 19 16 16 18 18 18 18
5 5 5 4 6 7 6 7 7 8 6 6 6 9 8 7 6 5 6 3 4 4 5 4 2 2 3 1 4 5 5 6 5 10 13 15 16 18 20 18 19 19 19
5 7 7 8 7 7 6 7 6 4 5 13 12 7 8 6 7 7 4 6 6 6 4 6 4 3 5 6 5 5 5 5 5 9 10 12 15 16 17 18 20 20 20
6 6 6 5 5 4 5 5 7 8 8 13 7 7 6 7 6 4 4 5 5 4 4 4 4 3 3 4 5 6 5 6 6 12 14 17 16 15 17 19 18 20 19
5 5 4 3 3 4 6 5 5 2 5 5 5 6 5 5 5 4 5 6 5 5 6 6 7 6 5 6 5 5 5 5 7 6 3 4 6 6 8 14 16 18 20
2 2 3 3 4 3 5 5 3 4 6 6 6 6 7 8 10 9 5 6 5 4 5 6 6 4 4 3 3 4 4 4 3 2 1 2 2 3 5 10 14 17 12
4 3 3 4 4 5 6 5 2 4 5 6 6 6 6 9 9 14 14 13 11 9 10 8 8 9 9 5 4 4 3 4 4 3 4 4 3 7 8 8 13 11 10
5 4 5 5 5 4 6 4 2 2 4 5 6 6 8 8 9 10 6 11 12 13 12 12 12 11 7 6 6 9 2 1 3 4 5 8 6 8 10 7 10 7 5
4 4 4 4 3 3 9 7 6 4 5 7 9 9 8 10 4 5 5 6 4 5 5 5 8 10 10 6 4 3 2 4 5 7 8 7 7 9 8 7 9 8 7
4 5 5 4 4 4 10 9 5 5 6 6 7 9 5 7 1 3 4 4 7 8 6 7 8 11 6 6 6 3 5 5 9 9 5 3 4 7 9 9 4 7 4
5 3 5 5 5 5 8 6 4 4 5 5 7 1 7 5 5 4 4 7 8 8 6 6 6 5 6 6 8 6 5 7 7 6 5 3 3 4 4 4 3 1 3
Wind_Direction
40 278 49 301 24 345 353 357 1 51 299 225 283 268 304 114 114 126 143 147 147 149 153 160 165 169 171 171 175 187 201 226 215 228 248 279 291 286 274 264 262 265 270
110 313 211 11 277 318 342 36 49 335 277 320 109 309 333 113 134 135 142 159 168 160 166 174 179 184 193 204 216 227 230 217 240 233 231 241 256 271 282 285 281 275 281
170 301 270 243 232 44 301 315 240 204 259 197 25 238 271 313 128 164 162 161 184 182 180 185 190 196 205 217 230 236 232 237 239 229 236 240 244 249 257 263 273 279 276
246 231 275 204 76 331 261 266 251 298 257 291 213 232 213 176 222 127 208 166 170 187 198 197 199 209 212 222 227 233 242 242 238 241 246 248 254 257 259 245 249 255 261
191 199 288 109 84 290 290 351 354 58 317 264 272 209 142 291 180 193 202 204 157 175 174 202 205 213 213 213 220 227 234 242 258 265 266 280 277 279 277 244 243 247 250
214 171 238 132 125 271 267 67 37 341 322 297 309 199 168 210 231 231 122 121 219 196 177 178 193 216 220 222 226 234 235 239 253 271 279 299 297 290 291 278 258 254 253
221 163 230 160 166 258 101 35 322 254 264 206 310 312 199 232 306 301 184 196 241 186 208 166 190 206 196 215 217 227 237 226 235 261 306 334 317 302 297 292 287 276 260
210 182 186 277 183 67 147 196 251 309 295 193 229 286 293 8 248 228 259 225 237 317 157 138 186 210 172 190 215 212 207 206 178 219 313 312 304 301 301 301 300 310 304
227 215 172 201 110 123 244 181 212 258 307 312 225 152 336 49 341 253 259 284 262 228 286 228 213 217 230 186 152 195 170 170 171 212 280 286 287 290 291 294 295 299 300
205 236 190 186 189 193 230 185 209 227 290 290 325 291 249 128 131 321 304 234 228 231 223 226 229 210 213 179 203 158 168 177 182 203 268 277 283 285 285 286 289 291 291
189 214 227 178 182 188 262 258 164 211 248 283 287 308 257 29 140 200 272 284 260 232 233 218 205 199 216 189 189 151 166 170 174 192 251 270 280 283 283 284 284 286 286
190 203 212 188 189 196 231 244 227 217 216 262 303 301 269 182 232 215 220 261 267 284 173 134 180 199 213 205 199 151 163 166 184 205 227 253 264 274 279 282 285 287 287
179 189 193 223 195 186 214 237 254 240 210 216 246 270 307 293 253 227 233 280 272 297 278 232 231 215 200 171 137 152 169 183 207 218 220 233 249 263 275 280 283 288 292
265 53 194 198 230 190 203 235 249 226 230 218 218 242 259 281 308 301 277 263 298 268 274 257 258 223 187 168 163 162 171 197 211 216 219 223 234 247 258 262 269 276 281
266 199 217 183 224 226 222 221 230 244 236 228 211 228 229 244 257 272 279 278 229 280 273 289 288 336 171 157 169 179 186 199 227 212 218 221 228 237 241 247 253 260 269
314 307 211 201 210 241 237 246 245 241 237 229 217 233 243 245 246 247 259 263 283 272 280 253 276 297 206 194 203 179 195 209 221 209 221 228 230 236 233 238 244 250 258
249 257 246 226 224 226 234 229 230 254 263 235 230 236 243 243 245 257 269 290 293 288 277 276 239 331 354 316 260 231 226 217 223 228 243 237 232 229 234 235 239 245 251
235 246 255 244 235 225 208 228 246 249 24 281 253 247 251 244 256 237 257 261 251 261 265 275 263 276 279 274 246 228 229 235 237 242 252 237 228 226 231 231 235 241 248
253 276 258 266 291 269 253 250 248 232 213 245 268 262 263 263 256 268 270 287 297 298 289 292 295 285 265 266 254 231 218 233 235 244 242 253 257 242 239 242 241 246 251
273 262 297 291 283 268 268 254 268 275 260 260 273 257 258 262 252 266 264 251 257 263 266 269 267 263 252 250 235 231 245 229 237 244 283 304 304 288 271 250 254 258 255
326 297 291 315 265 305 276 293 315 321 309 290 275 265 255 245 230 221 224 242 258 273 273 277 278 280 283 301 301 300 289 274 268 232 244 289 294 302 290 290 282 277 248
12 334 289 289 277 261 107 90 35 354 339 317 314 311 311 302 259 236 231 230 237 249 258 258 261 264 269 267 289 303 303 298 285 37 351 308 305 297 285 267 255 255 222
343 352 346 343 353 21 151 159 148 270 279 285 288 284 284 286 304 321 293 278 292 285 263 258 259 259 297 304 319 298 286 244 263 293 311 287 293 285 276 256 262 259 258
336 329 304 290 315 310 192 204 206 252 257 258 264 270 278 283 14 334 292 281 229 255 227 211 250 253 248 252 173 174 236 266 267 270 266 267 275 277 294 278 271 170 165
295 282 270 299 286 288 199 219 200 259 286 303 309 309 4 48 158 290 319 295 286 288 281 256 272 271 182 184 202 205 267 293 285 273 257 277 263 291 285 284 287 171 206
282 338 296 283 306 306 45 217 224 309 335 330 318 347 94 100 178 222 289 303 301 299 324 321 308 270 236 247 246 242 265 255 262 285 235 204 243 306 285 291 275 327 299